Location: Mahannah Oil Field
(37.4664°N, 96.6003°W)
Time: 12:09:37
(UTC+00:00)

Transit 2A Rocket - Pass Details

Date: 23 January 2021
Orbit: 594 x 908 km, 66.7° (Epoch: 07 March)

Event Time Altitude Azimuth Distance (km) Brightness Sun altitude
Rises 03:43:08 0° 336° (NNW) 2,892 - -48.0°
Reaches altitude 10° 03:45:28 10° 340° (NNW) 1,959 - -48.4°
Maximum altitude 03:49:45 57° 60° (ENE) 706 - -49.2°
Drops below altitude 10° 03:53:58 10° 139° (SE) 1,924 - -50.0°
Sets 03:56:15 0° 143° (SE) 2,835 - -50.5°
